Wetbulb
60.41 60.33 60.01 59.42 59.28 59.42 59.41 59.11 57.94 57.80 58.08 58.41 58.13 58.02 58.03 57.78 57.51 57.61 57.81 57.94 57.60 57.41 57.27 57.32 57.64 58.02 58.32 58.59 59.01 59.24 59.54 59.82 59.95 59.21 58.42 58.50 59.10 59.35 59.44 59.64 59.45 59.65 59.75 59.76 59.95 60.12 60.11 60.10 59.87 59.38 59.00 58.65 58.56 58.72 58.77 58.85 58.89 58.66 58.51 58.38 58.30 58.33 58.33 57.97 57.72 57.81 58.36 58.75 58.94
60.27 60.07 59.39 57.92 57.67 58.51 59.17 58.65 58.10 57.88 58.16 58.58 58.51 58.46 58.38 58.19 58.00 57.99 58.08 58.23 58.08 57.83 57.60 57.40 57.66 58.00 58.39 58.66 58.81 58.97 59.17 59.31 59.54 59.25 58.90 58.89 59.05 59.15 59.23 59.27 59.35 59.29 59.22 59.36 59.80 59.88 59.94 60.06 59.69 59.42 59.08 58.92 58.83 58.90 58.95 59.09 59.16 59.00 58.81 58.68 58.61 58.58 58.38 57.93 57.51 57.74 58.26 58.81 58.93
60.39 60.13 59.76 59.50 59.34 59.19 59.07 58.82 58.67 58.72 58.70 58.76 58.85 58.72 58.61 58.49 58.37 58.31 58.35 58.47 58.55 58.34 57.88 57.57 57.55 57.81 58.15 58.51 58.71 58.93 59.01 59.21 59.29 59.29 59.16 59.05 59.08 59.11 59.12 58.98 59.33 58.93 58.65 59.28 59.63 59.87 59.88 59.96 59.42 58.78 58.60 59.11 59.08 59.08 59.10 59.58 59.44 59.28 58.97 58.75 58.77 58.68 58.51 58.13 58.08 57.97 57.93 58.17 58.64
60.56 60.47 60.21 59.94 59.74 59.55 59.32 59.07 59.05 58.94 58.99 58.80 58.88 58.84 58.74 58.72 58.66 58.71 58.75 58.63 58.41 58.11 57.79 57.75 57.71 57.63 57.73 57.95 58.31 58.64 58.62 57.88 58.53 58.83 58.99 58.95 58.93 58.97 59.08 59.05 59.30 59.42 59.52 59.74 59.89 59.94 60.12 60.19 59.67 59.33 59.30 59.63 59.56 59.35 59.35 59.58 59.51 59.28 59.12 59.05 59.13 59.05 58.90 58.69 58.58 58.32 57.95 57.88 58.45
60.83 60.71 60.64 60.50 60.31 60.20 60.08 59.87 59.60 59.44 59.35 59.11 59.02 58.78 58.77 58.81 58.90 58.73 58.46 58.06 57.78 57.83 58.09 58.20 57.93 57.57 57.42 57.54 58.23 58.51 58.44 57.99 56.61 57.50 58.80 58.76 58.97 59.16 59.34 59.53 59.54 59.72 59.81 59.89 59.96 60.15 60.33 60.50 60.10 60.05 60.07 60.16 59.87 59.74 59.74 59.97 59.81 59.51 59.28 59.27 59.20 59.20 59.20 59.20 58.98 58.60 58.26 57.78 58.33
60.96 60.99 60.90 60.97 60.69 60.44 60.29 60.28 60.16 60.04 59.82 59.44 59.11 58.83 58.73 58.78 58.69 58.46 58.11 57.70 57.86 58.11 58.06 57.42 57.04 56.70 56.70 57.61 58.05 58.25 58.32 58.48 57.84 58.04 58.55 58.72 58.97 59.32 59.49 59.61 59.72 59.82 59.90 60.04 60.25 60.38 60.58 60.52 60.29 60.29 60.38 60.38 60.19 60.19 60.26 60.41 59.96 59.52 59.30 59.27 59.41 59.55 59.62 59.47 59.33 58.96 58.52 58.00 58.21
61.31 61.06 61.06 61.08 60.84 60.46 60.30 60.54 60.32 60.20 60.01 59.58 59.40 59.00 58.90 58.84 58.66 58.54 58.27 57.97 57.97 58.06 57.57 56.61 56.87 56.90 57.06 57.42 57.76 57.91 58.02 58.16 58.41 58.47 58.60 58.56 59.03 59.15 59.27 59.42 59.67 59.90 60.19 60.34 60.41 60.40 60.55 60.56 60.24 59.78 59.32 58.85 59.78 60.26 60.48 60.41 60.01 59.57 59.35 59.13 59.48 59.69 59.78 59.82 59.65 59.25 58.96 58.62 58.41
61.74 61.52 61.36 61.34 61.10 60.78 60.57 60.30 60.09 60.00 59.82 59.36 59.22 59.26 59.36 59.23 58.85 58.60 58.28 58.18 58.14 58.06 57.76 57.52 57.99 57.93 57.71 57.42 57.28 57.49 57.68 57.73 58.02 58.21 58.49 58.71 59.03 59.25 59.30 59.46 59.68 59.89 60.18 60.47 60.48 60.56 60.63 60.54 60.16 59.93 59.85 59.63 59.78 60.10 60.48 60.40 60.12 59.67 59.37 59.23 59.49 59.80 59.97 60.02 59.88 59.53 59.14 58.86 58.55
61.66 61.63 61.58 61.56 61.30 61.15 60.74 60.29 60.27 60.00 59.72 59.44 59.35 59.45 59.60 59.36 59.04 58.85 58.60 58.40 58.21 58.20 58.27 58.29 58.29 58.15 57.93 57.56 57.33 57.34 57.42 57.50 57.71 58.05 58.43 58.78 58.85 59.09 59.31 59.53 59.60 59.88 60.24 60.53 60.69 60.69 60.70 60.54 60.15 60.07 60.00 59.86 59.94 60.18 60.41 60.55 60.11 59.67 59.46 59.36 59.65 59.87 60.10 60.12 59.96 59.75 59.38 59.00 58.66
61.56 61.56 61.50 61.23 61.28 61.03 60.70 60.49 60.43 60.20 59.90 59.72 59.87 59.82 59.21 57.64 58.33 58.91 59.17 58.91 58.57 58.70 58.87 58.87 58.72 58.42 58.05 57.74 57.50 57.51 57.60 57.83 57.90 58.13 58.43 58.51 58.58 58.94 59.37 59.59 59.73 59.95 60.24 60.60 60.83 60.83 60.85 60.55 60.24 60.11 60.11 60.31 60.33 60.48 60.48 60.55 60.25 59.96 59.60 59.49 59.59 59.75 59.97 60.04 60.04 59.89 59.45 58.86 58.66
62.10 61.90 61.59 61.19 61.08 60.83 60.49 60.61 60.28 60.12 60.02 60.00 60.12 59.96 59.51 58.27 59.02 59.41 59.59 59.43 59.30 59.31 59.45 59.48 59.26 58.82 58.36 58.13 58.02 58.02 58.26 58.43 58.57 58.63 58.71 58.89 58.77 59.12 59.56 59.79 60.00 60.06 60.28 60.65 60.89 60.97 60.84 60.56 60.34 60.19 60.19 60.41 60.63 60.63 60.62 60.62 60.40 60.18 59.89 59.82 59.82 59.68 59.75 59.97 59.90 59.75 59.31 58.95 58.77
62.54 62.42 62.11 61.59 61.46 61.21 60.99 60.82 60.50 60.28 60.17 60.13 60.11 60.15 60.07 60.07 60.11 59.84 59.56 59.75 59.68 59.81 59.91 60.09 59.94 59.56 59.18 58.96 59.00 58.79 58.87 59.43 59.41 59.26 59.27 59.45 59.54 59.72 59.82 59.98 60.19 60.23 60.44 60.60 60.94 60.88 60.82 60.53 60.40 60.25 60.26 60.41 60.63 60.70 60.70 60.70 60.55 60.33 60.11 60.12 59.90 59.75 59.53 59.52 59.74 59.66 59.36 59.15 58.65
62.81 62.74 62.50 62.15 61.98 61.74 61.55 61.25 60.92 60.71 60.38 60.30 60.34 60.27 60.23 60.18 60.05 59.87 59.68 59.74 59.66 59.91 60.35 60.55 60.63 60.47 60.30 60.22 60.21 60.19 60.26 60.31 60.37 60.26 60.08 60.16 60.19 60.14 60.23 60.25 60.39 60.44 60.50 60.66 60.84 61.01 60.86 60.73 60.66 60.45 60.31 60.25 60.63 60.70 60.98 60.92 60.63 60.34 60.12 59.97 59.82 59.60 59.46 59.37 59.43 59.50 59.37 59.16 58.44
62.78 62.75 62.66 62.52 62.26 62.13 61.76 61.44 61.22 60.95 60.73 60.76 60.72 60.64 60.53 60.40 59.89 59.68 59.66 59.83 59.88 60.26 60.74 61.03 61.00 60.93 61.04 61.27 61.18 61.23 61.13 61.22 61.15 61.20 61.10 60.93 60.95 60.90 60.76 60.54 60.68 60.59 60.59 60.69 60.86 61.08 60.98 60.78 60.86 60.65 60.51 60.38 60.48 60.84 61.03 61.11 60.77 60.56 60.26 59.97 59.68 59.46 59.38 59.23 59.21 59.29 59.09 58.87 58.22
62.63 62.55 62.58 62.61 62.47 62.18 61.89 61.66 61.42 61.23 61.16 61.07 61.08 60.99 60.70 60.48 59.81 59.64 59.83 60.43 60.53 60.79 61.16 61.45 61.41 61.35 61.40 61.83 61.70 61.75 61.67 61.60 61.48 61.48 61.47 61.38 61.47 61.34 61.27 61.04 61.02 60.87 60.80 60.75 60.94 61.01 60.97 60.96 60.90 60.93 60.73 60.52 60.60 60.77 60.92 60.91 60.84 60.55 60.41 60.04 59.75 59.46 59.31 59.31 59.23 59.09 58.80 58.50 58.13
62.55 62.41 62.55 62.56 62.52 62.21 61.89 61.57 61.53 61.54 61.61 61.46 61.58 61.36 61.04 60.94 60.54 60.26 60.27 60.74 60.97 61.26 61.47 61.66 61.80 61.87 61.82 61.31 61.62 61.75 61.65 61.51 61.39 61.36 61.35 61.41 61.51 61.36 61.38 61.21 61.21 61.06 60.99 60.93 60.92 61.08 61.15 61.32 61.32 61.24 61.01 60.88 60.66 60.67 60.61 60.70 60.55 60.47 60.32 60.03 59.81 59.60 59.31 59.02 58.94 58.86 58.62 58.26 57.76
62.63 62.63 62.55 62.55 62.61 62.37 62.01 61.72 61.81 61.89 61.89 62.03 62.01 61.76 61.42 61.32 61.23 60.62 60.15 60.41 61.17 61.51 61.78 61.73 61.94 61.94 61.76 61.16 61.36 61.52 61.62 61.44 61.29 61.23 61.18 61.21 61.23 61.31 61.24 61.24 61.12 61.21 61.21 60.97 60.86 60.87 61.04 61.33 61.51 61.58 61.35 61.13 60.82 60.66 60.52 60.40 60.26 60.10 59.85 59.76 59.53 59.45 59.15 58.45 58.58 58.72 58.73 58.53 57.91
62.70 62.70 62.70 62.55 62.48 62.40 62.25 62.03 62.01 62.07 62.13 62.19 62.08 61.90 61.81 61.67 61.52 61.04 60.57 60.51 61.22 61.64 61.75 61.81 62.00 62.00 61.89 61.79 61.62 61.18 61.00 61.20 61.16 61.13 61.20 61.20 61.20 61.20 61.13 61.21 61.12 61.28 61.34 61.17 60.79 60.74 60.76 60.94 61.33 61.51 61.59 61.44 61.15 60.85 60.48 60.19 59.88 59.83 59.59 59.34 59.30 59.33 59.50 59.22 59.47 59.60 59.54 59.52 59.07
62.69 62.77 62.84 62.61 62.46 62.41 62.25 61.88 62.24 62.41 62.35 62.16 62.10 61.96 61.92 61.80 61.73 61.54 61.36 61.17 61.12 61.27 61.63 61.60 61.83 61.68 61.70 61.49 61.59 60.85 60.41 60.99 61.13 61.21 61.34 61.39 61.39 61.39 61.32 61.27 61.30 61.28 61.27 61.11 60.89 60.83 60.64 60.69 61.02 61.29 61.50 61.41 61.13 60.77 60.25 59.79 59.57 59.49 59.41 59.50 59.43 59.73 60.11 60.27 60.30 60.32 60.27 60.25 59.79
62.68 62.74 62.65 62.64 62.55 62.43 62.32 62.26 62.69 62.84 62.99 63.12 63.13 62.62 61.97 61.89 61.81 61.61 61.40 61.48 61.34 61.51 61.72 61.62 61.51 61.59 61.66 61.74 61.74 61.36 60.84 60.89 61.19 61.17 61.34 61.62 61.53 61.53 61.44 61.48 61.39 61.37 61.20 61.13 60.94 60.90 60.78 60.68 60.88 61.07 61.21 61.01 60.53 60.14 59.99 60.08 60.50 60.43 60.12 60.22 60.26 60.26 60.16 59.96 59.81 59.73 59.66 59.91 59.65
62.58 62.78 62.91 62.80 62.72 62.57 62.52 62.55 62.71 62.89 63.22 63.44 63.36 62.70 62.26 62.57 62.37 61.89 61.47 61.31 61.64 61.79 61.77 61.68 61.72 61.81 61.74 61.88 61.66 61.43 61.28 60.84 61.25 61.26 61.26 61.31 61.28 61.41 61.46 61.41 61.37 61.36 61.29 61.15 61.14 60.96 60.93 60.76 60.91 61.14 61.32 61.39 61.07 60.73 60.58 60.67 61.02 60.90 60.59 60.21 60.05 59.85 59.59 59.14 58.93 58.76 58.63 58.60 58.42
62.63 62.90 63.02 63.01 62.75 62.68 62.61 62.62 62.72 62.66 62.83 62.84 62.70 62.43 62.24 62.40 62.18 62.11 62.11 62.24 62.18 62.03 61.80 61.73 61.81 61.95 62.01 62.07 61.73 61.59 61.29 61.00 61.36 61.39 61.28 61.23 61.26 61.23 61.30 61.38 61.48 61.36 61.22 61.20 61.13 61.22 61.44 61.71 61.98 62.29 62.50 62.36 62.01 61.46 60.76 60.37 60.39 60.09 59.69 59.08 58.99 58.91 58.75 58.24 57.97 58.02 58.15 57.80 56.94
62.61 62.95 63.16 63.16 63.01 62.37 61.94 62.41 62.61 62.62 62.48 62.41 62.32 62.18 61.97 61.84 61.77 61.91 62.03 62.18 61.37 61.29 61.66 61.87 62.13 62.25 62.30 62.42 62.23 61.83 61.64 61.57 61.51 61.37 61.43 61.48 61.44 61.34 61.43 61.52 61.44 61.37 61.32 61.43 61.95 62.33 62.93 63.36 63.78 63.92 63.68 62.88 62.13 61.21 60.39 59.88 59.50 59.06 58.53 57.95 57.73 57.68 57.58 57.22 56.90 56.86 56.75 56.42 55.51
62.26 62.75 63.01 63.11 63.12 62.83 62.62 62.61 62.61 62.47 62.32 62.16 62.13 61.89 61.73 61.73 61.68 61.81 61.87 61.83 61.54 61.34 61.44 61.45 62.17 62.34 62.41 62.40 62.24 61.94 61.63 61.45 61.34 61.31 61.55 61.84 61.91 62.24 62.96 63.74 63.76 63.40 63.12 63.53 62.52 61.95 61.90 62.49 63.51 63.45 62.78 62.05 61.19 60.49 59.64 59.03 58.10 57.45 57.01 56.45 56.11 55.97 55.80 55.66 55.45 55.16 54.91 54.68 54.12
61.86 62.14 62.41 62.74 62.79 62.78 62.65 62.52 62.32 62.18 62.10 62.07 62.05 61.94 61.76 61.58 61.62 61.66 61.72 61.67 61.63 61.64 61.66 61.78 62.15 62.17 62.07 61.98 61.78 61.72 61.41 60.92 60.78 60.95 61.50 62.04 63.09 63.64 63.92 64.16 63.98 64.17 64.20 63.29 54.75 51.35 51.98 54.97 58.22 60.22 60.82 60.32 59.80 59.30 58.79 58.22 57.32 56.56 55.89 55.24 54.54 54.17 53.83 53.78 53.89 53.91 53.81 53.62 53.45
61.44 61.58 61.77 62.05 62.27 62.17 62.19 62.14 62.07 62.09 62.00 62.06 61.97 61.80 61.62 61.44 61.46 61.41 61.38 61.29 61.37 61.51 61.66 61.71 61.75 61.11 60.69 61.39 61.52 61.41 61.18 60.88 60.95 61.20 61.75 62.74 63.80 63.99 63.87 63.71 64.25 65.05 63.83 58.50 48.92 45.93 46.58 48.06 50.09 53.34 56.81 59.62 58.63 57.85 57.35 56.86 56.20 55.46 54.78 54.21 53.39 53.05 52.92 52.84 53.12 52.90 52.53 52.22 52.46
61.07 61.22 61.37 61.54 61.61 61.54 61.49 61.65 61.73 61.75 61.82 61.73 61.73 61.56 61.48 61.39 61.32 61.20 61.17 61.07 61.22 61.59 61.80 61.71 61.73 60.26 59.32 61.23 61.22 61.37 61.55 61.62 61.96 62.15 62.32 62.80 62.80 62.88 62.83 62.85 63.63 64.39 61.67 52.16 45.40 43.87 44.88 45.54 46.23 48.42 52.52 58.28 57.28 56.06 55.19 55.58 55.29 54.98 54.51 53.82 53.20 52.86 52.69 52.59 52.54 52.20 51.86 51.78 51.86
60.69 61.06 61.39 61.49 61.29 61.12 61.13 61.22 61.30 61.23 61.30 61.39 61.39 61.46 61.37 61.39 61.10 61.06 60.96 60.88 61.17 61.44 61.57 61.62 61.58 61.23 60.91 61.03 61.29 61.78 62.24 62.29 62.30 62.49 62.96 63.24 62.79 62.27 61.80 61.28 62.41 61.22 56.09 46.32 42.63 42.36 43.61 44.49 44.70 45.71 48.13 52.59 55.63 56.24 55.73 55.55 54.91 54.61 54.14 53.51 53.20 52.85 52.55 52.51 52.38 52.15 51.97 51.89 51.81
60.76 61.37 61.70 61.83 61.31 61.06 60.93 60.87 60.90 60.87 61.00 61.16 61.25 61.34 61.27 61.06 60.85 60.75 60.72 60.80 60.87 61.07 61.13 61.39 61.28 61.69 61.97 61.34 61.70 62.18 62.49 62.41 62.46 62.52 62.66 62.93 62.40 61.96 61.68 61.39 61.79 57.76 50.79 42.55 41.81 42.06 42.71 43.42 43.55 43.63 44.77 47.79 53.85 56.06 55.96 55.17 54.55 54.02 53.53 52.94 52.85 52.68 52.41 52.32 52.19 52.04 52.12 52.12 52.07
60.81 61.68 62.13 62.21 61.52 60.92 60.75 60.78 60.78 60.92 60.94 60.99 61.01 61.05 60.87 60.84 60.78 60.65 60.61 60.58 60.69 60.84 61.07 61.32 61.58 61.82 61.85 61.70 61.93 62.03 61.98 61.89 62.35 62.24 61.92 61.73 61.47 61.17 60.75 59.83 60.57 57.48 51.13 42.81 43.64 43.43 43.04 43.23 43.23 42.86 43.03 44.41 51.25 55.08 56.23 55.16 54.48 53.71 53.03 52.71 52.64 52.60 52.29 52.08 51.90 51.78 51.71 51.82 51.97
60.70 61.51 61.89 61.90 61.31 60.96 60.85 60.95 60.96 61.04 60.85 60.90 60.85 60.72 60.69 60.57 60.45 60.63 60.58 60.78 60.83 60.40 60.47 61.39 61.47 61.34 61.35 61.51 61.55 61.63 61.63 61.69 61.79 61.61 61.39 61.17 59.89 59.76 60.01 59.99 59.81 57.03 51.03 42.08 43.63 43.82 43.43 43.35 42.95 42.45 42.17 42.39 49.13 53.80 55.79 54.96 54.23 53.52 53.03 52.83 52.79 52.45 52.10 51.70 51.62 51.73 51.74 51.79 51.75
60.74 61.00 61.34 61.36 61.03 60.96 60.92 60.99 61.00 60.95 60.89 60.74 60.65 60.51 60.44 60.40 60.58 60.82 61.01 60.90 60.82 60.83 60.99 61.29 60.88 60.62 60.41 60.71 60.93 61.13 61.31 61.55 61.61 61.55 61.28 60.99 60.72 60.52 60.22 59.60 59.53 56.93 51.04 41.16 43.17 43.73 43.47 43.07 42.44 41.81 41.49 41.44 47.03 51.97 55.04 54.65 54.13 53.53 53.24 53.01 52.70 52.49 52.33 52.16 52.27 52.28 52.28 52.18 52.06
60.82 60.81 60.96 61.01 61.15 61.14 61.06 61.07 61.00 60.88 60.80 60.51 60.35 60.31 60.31 60.35 60.71 60.89 61.06 60.87 60.86 61.04 61.14 60.98 60.45 59.98 59.77 59.98 60.33 60.74 61.10 61.37 61.42 61.16 60.79 60.99 61.21 60.98 60.40 59.70 60.11 56.79 50.31 40.75 43.08 43.68 43.29 42.71 42.08 41.58 41.30 41.08 46.99 51.65 54.25 54.49 53.99 53.76 53.43 53.16 53.14 53.23 53.32 53.42 53.53 53.30 53.10 52.76 52.88
61.09 61.07 61.13 61.15 61.28 61.29 61.36 61.18 61.13 61.00 60.77 60.47 60.28 60.18 60.23 60.32 60.44 60.51 60.45 60.28 60.76 61.00 61.15 60.92 60.62 60.38 60.26 60.42 60.65 60.76 60.66 60.60 61.78 62.49 62.70 62.56 62.10 61.29 60.74 60.46 61.48 55.55 47.13 40.89 42.91 43.51 43.25 42.62 42.26 41.99 41.76 41.33 47.30 51.64 53.90 54.05 53.81 53.65 53.50 53.64 53.89 54.19 54.35 54.39 54.20 53.99 53.83 53.68 53.93
61.59 61.50 61.44 61.40 61.58 61.74 61.81 61.63 61.41 61.13 60.85 60.47 60.35 60.38 60.59 60.81 60.82 60.76 60.54 59.72 60.19 61.06 61.77 61.74 61.66 61.62 61.56 61.58 61.51 61.42 61.49 62.20 63.28 63.53 63.51 63.33 62.58 61.62 60.76 60.75 61.73 52.99 42.70 41.12 42.50 43.10 43.21 42.94 42.76 42.57 42.56 43.12 48.56 52.00 53.59 53.69 53.53 53.64 53.86 54.04 54.35 54.67 54.80 54.78 54.68 54.55 54.51 54.66 54.68
62.32 62.15 62.10 62.00 62.14 62.32 62.40 62.31 62.05 61.66 61.31 60.90 60.84 61.07 61.22 61.51 61.64 61.56 60.98 59.68 60.34 61.29 62.01 62.12 62.17 62.08 61.90 61.85 62.17 61.50 61.10 62.20 62.77 63.47 63.93 63.94 63.06 62.21 61.55 61.05 61.70 52.61 41.64 40.75 41.73 42.52 43.02 43.25 43.07 42.61 43.00 45.46 49.94 52.17 52.93 52.95 53.14 53.51 53.96 54.32 54.54 54.84 55.04 54.80 54.66 54.65 54.74 54.75 54.44
62.89 62.86 62.89 62.94 62.84 62.91 63.03 63.08 62.86 62.47 62.06 61.75 61.88 61.79 61.93 62.03 62.25 62.32 61.81 60.70 61.58 61.88 61.89 61.95 62.00 61.84 61.76 61.75 61.92 61.68 61.70 62.39 63.39 64.02 64.22 63.67 63.08 62.49 61.82 61.27 61.65 53.38 42.86 39.79 40.73 41.42 42.03 42.62 42.56 42.55 43.67 47.30 50.61 51.91 52.33 52.48 52.89 53.30 53.80 54.06 54.50 54.76 54.75 54.43 54.10 54.07 53.72 52.86 49.90
63.45 63.49 63.65 63.65 63.48 63.38 63.39 63.59 63.63 63.35 63.17 62.97 62.92 62.93 62.97 62.76 62.78 62.70 62.03 60.56 61.94 62.06 61.94 61.96 61.95 62.01 62.14 62.50 62.48 62.46 62.61 62.85 63.51 64.11 64.34 63.81 63.08 62.23 61.14 59.77 56.76 50.17 43.16 39.17 39.59 40.23 40.79 41.29 41.24 41.59 43.53 48.47 50.80 51.80 51.90 52.18 52.50 52.86 53.13 53.48 53.66 53.65 53.55 53.48 53.43 53.39 51.71 46.86 40.21
63.83 63.84 64.10 64.09 63.95 63.87 63.80 63.72 63.97 64.18 64.18 64.10 63.82 63.71 63.50 63.28 63.20 62.84 62.33 61.37 62.62 62.68 62.38 62.18 62.11 62.46 62.50 61.96 63.01 63.50 63.56 63.06 62.75 62.22 61.64 61.18 59.12 57.00 54.92 53.27 48.24 43.98 40.27 37.37 37.73 38.81 39.86 40.68 40.77 40.81 42.16 46.67 49.92 51.31 51.73 52.00 52.14 52.27 52.49 52.58 52.44 52.30 52.38 52.70 53.02 52.58 49.33 40.76 36.25
64.32 64.51 64.75 64.95 64.72 64.50 64.19 63.88 64.12 64.61 65.02 64.93 64.43 64.02 63.63 63.37 62.84 62.66 62.62 62.55 63.30 63.37 63.00 62.78 63.15 63.84 63.62 61.64 62.49 61.56 59.54 57.31 55.39 53.62 51.94 50.82 48.70 46.99 46.04 46.45 44.02 41.34 38.61 36.23 36.12 36.74 37.77 38.95 39.54 39.85 41.29 45.04 48.34 50.10 51.01 51.46 51.50 51.59 51.72 51.85 51.76 51.81 52.03 52.52 52.35 50.47 46.40 39.91 37.45
64.43 64.62 64.73 64.86 65.02 64.72 64.26 63.87 64.03 64.57 65.14 65.41 64.98 64.27 63.52 62.82 62.96 63.25 63.44 63.59 63.67 63.51 63.48 63.37 64.24 64.82 63.74 60.48 58.62 55.44 51.85 48.75 46.81 45.43 44.34 43.12 42.63 42.27 42.50 43.81 42.93 41.28 39.25 37.12 36.33 36.35 36.78 37.18 37.76 38.61 40.43 44.00 46.99 48.75 49.79 50.47 50.55 50.78 51.09 51.44 51.67 51.72 51.94 51.94 49.52 46.13 42.70 40.23 38.23
MSLP
1008.38 1008.58 1008.82 1009.02 1009.26 1009.46 1009.62 1009.82 1010.02 1010.18 1010.34 1010.50 1010.70 1010.86 1010.98 1011.10 1011.22 1011.30 1011.38 1011.42 1011.38 1011.38 1011.46 1011.58 1011.74 1011.94 1012.14 1012.26 1012.42 1012.58 1012.74 1012.90 1013.02 1013.10 1013.18 1013.26 1013.34 1013.46 1013.62 1013.74 1013.90 1014.14 1014.34 1014.46 1014.66 1014.86 1015.02 1015.10 1015.30 1015.46 1015.62 1015.70 1015.86 1015.98 1016.10 1016.18 1016.30 1016.42 1016.54 1016.58 1016.70 1016.78 1016.90 1016.94 1016.98 1017.02 1017.02 1017.02 1016.98
1008.18 1008.38 1008.58 1008.86 1009.06 1009.26 1009.46 1009.66 1009.86 1010.02 1010.18 1010.30 1010.50 1010.70 1010.86 1011.02 1011.10 1011.22 1011.30 1011.34 1011.30 1011.34 1011.38 1011.46 1011.54 1011.74 1011.98 1012.14 1012.30 1012.50 1012.70 1012.86 1012.94 1013.02 1013.10 1013.18 1013.22 1013.34 1013.50 1013.70 1013.86 1014.02 1014.18 1014.34 1014.54 1014.70 1014.86 1015.02 1015.18 1015.30 1015.46 1015.58 1015.70 1015.82 1015.90 1015.90 1016.02 1016.18 1016.30 1016.38 1016.46 1016.58 1016.66 1016.74 1016.78 1016.82 1016.78 1016.74 1016.70
1007.98 1008.18 1008.38 1008.58 1008.82 1008.98 1009.14 1009.38 1009.58 1009.74 1009.94 1010.10 1010.30 1010.50 1010.66 1010.82 1010.94 1011.02 1011.10 1011.18 1011.18 1011.22 1011.30 1011.34 1011.42 1011.58 1011.82 1012.02 1012.22 1012.42 1012.58 1012.74 1012.82 1012.90 1012.98 1013.06 1013.18 1013.26 1013.38 1013.54 1013.74 1013.90 1014.02 1014.18 1014.34 1014.54 1014.70 1014.86 1015.02 1015.14 1015.26 1015.34 1015.46 1015.62 1015.66 1015.70 1015.74 1015.90 1016.06 1016.18 1016.18 1016.30 1016.42 1016.46 1016.46 1016.54 1016.54 1016.46 1016.46
1007.62 1007.86 1008.06 1008.30 1008.46 1008.62 1008.82 1009.02 1009.18 1009.46 1009.70 1009.90 1010.10 1010.26 1010.42 1010.58 1010.70 1010.78 1010.86 1010.90 1010.98 1011.02 1011.10 1011.18 1011.22 1011.38 1011.62 1011.86 1012.10 1012.30 1012.46 1012.58 1012.70 1012.78 1012.86 1012.94 1013.06 1013.18 1013.26 1013.42 1013.62 1013.74 1013.86 1013.98 1014.14 1014.30 1014.46 1014.62 1014.82 1014.94 1015.02 1015.06 1015.18 1015.30 1015.38 1015.46 1015.58 1015.70 1015.78 1015.86 1015.94 1016.02 1016.10 1016.14 1016.18 1016.22 1016.30 1016.26 1016.30
1007.26 1007.46 1007.70 1007.90 1008.14 1008.30 1008.46 1008.62 1008.90 1009.10 1009.30 1009.50 1009.70 1009.90 1010.02 1010.18 1010.30 1010.46 1010.54 1010.62 1010.70 1010.74 1010.82 1010.90 1011.02 1011.18 1011.30 1011.58 1011.82 1012.06 1012.30 1012.46 1012.58 1012.66 1012.74 1012.82 1012.90 1013.02 1013.14 1013.26 1013.42 1013.58 1013.66 1013.78 1013.90 1014.06 1014.26 1014.46 1014.58 1014.70 1014.74 1014.82 1014.90 1015.02 1015.06 1015.18 1015.30 1015.46 1015.54 1015.62 1015.66 1015.74 1015.78 1015.82 1015.86 1015.90 1016.02 1016.10 1016.14
1006.94 1007.14 1007.30 1007.58 1007.82 1008.06 1008.22 1008.38 1008.54 1008.74 1008.94 1009.14 1009.30 1009.46 1009.66 1009.82 1009.94 1010.10 1010.22 1010.30 1010.34 1010.46 1010.58 1010.74 1010.90 1011.02 1011.18 1011.38 1011.58 1011.82 1012.06 1012.30 1012.42 1012.46 1012.54 1012.62 1012.74 1012.86 1012.98 1013.10 1013.18 1013.30 1013.46 1013.62 1013.74 1013.90 1014.06 1014.22 1014.34 1014.46 1014.46 1014.58 1014.58 1014.66 1014.74 1014.90 1015.02 1015.18 1015.26 1015.34 1015.42 1015.46 1015.50 1015.58 1015.62 1015.66 1015.74 1015.90 1015.98
1006.74 1006.90 1007.02 1007.22 1007.50 1007.74 1007.94 1008.10 1008.30 1008.46 1008.62 1008.74 1008.94 1009.14 1009.30 1009.46 1009.62 1009.78 1009.90 1010.02 1010.14 1010.30 1010.46 1010.58 1010.74 1010.90 1011.02 1011.18 1011.34 1011.62 1011.90 1012.02 1012.18 1012.26 1012.34 1012.46 1012.54 1012.62 1012.74 1012.86 1012.94 1013.06 1013.22 1013.34 1013.50 1013.66 1013.82 1013.90 1014.06 1014.18 1014.26 1014.30 1014.42 1014.46 1014.50 1014.62 1014.82 1014.90 1014.98 1015.02 1015.10 1015.18 1015.26 1015.30 1015.34 1015.46 1015.54 1015.62 1015.70
1006.54 1006.70 1006.90 1007.02 1007.26 1007.46 1007.70 1007.90 1008.06 1008.30 1008.46 1008.54 1008.70 1008.90 1009.06 1009.18 1009.34 1009.54 1009.74 1009.86 1010.02 1010.14 1010.30 1010.42 1010.58 1010.70 1010.82 1010.94 1011.18 1011.42 1011.62 1011.82 1011.98 1012.06 1012.18 1012.22 1012.34 1012.46 1012.50 1012.58 1012.74 1012.86 1012.94 1013.10 1013.22 1013.38 1013.58 1013.70 1013.82 1013.90 1013.98 1014.10 1014.18 1014.22 1014.26 1014.34 1014.50 1014.62 1014.74 1014.74 1014.78 1014.90 1014.94 1014.94 1015.02 1015.10 1015.22 1015.30 1015.42
1006.34 1006.58 1006.74 1006.90 1007.06 1007.30 1007.46 1007.70 1007.90 1008.10 1008.30 1008.38 1008.50 1008.66 1008.90 1009.02 1009.18 1009.38 1009.58 1009.70 1009.82 1009.94 1010.06 1010.18 1010.30 1010.42 1010.58 1010.70 1010.90 1011.10 1011.30 1011.50 1011.66 1011.78 1011.94 1012.02 1012.10 1012.18 1012.30 1012.38 1012.50 1012.58 1012.70 1012.82 1012.94 1013.10 1013.26 1013.46 1013.58 1013.62 1013.74 1013.78 1013.90 1013.94 1013.98 1014.06 1014.18 1014.30 1014.38 1014.46 1014.54 1014.58 1014.62 1014.66 1014.70 1014.78 1014.90 1015.02 1015.18
1006.18 1006.38 1006.66 1006.86 1007.02 1007.18 1007.34 1007.54 1007.74 1007.98 1008.18 1008.26 1008.34 1008.50 1008.74 1008.90 1009.02 1009.18 1009.30 1009.46 1009.58 1009.66 1009.74 1009.78 1009.90 1010.06 1010.22 1010.38 1010.54 1010.74 1010.94 1011.10 1011.26 1011.42 1011.54 1011.66 1011.74 1011.86 1011.98 1012.10 1012.22 1012.34 1012.46 1012.54 1012.66 1012.78 1012.94 1013.14 1013.30 1013.34 1013.42 1013.46 1013.58 1013.62 1013.70 1013.78 1013.90 1014.02 1014.06 1014.18 1014.26 1014.30 1014.38 1014.42 1014.46 1014.58 1014.66 1014.74 1014.90
1005.90 1006.18 1006.46 1006.70 1006.90 1007.02 1007.22 1007.46 1007.66 1007.90 1008.02 1008.10 1008.18 1008.34 1008.54 1008.70 1008.82 1008.94 1009.02 1009.18 1009.22 1009.26 1009.26 1009.30 1009.46 1009.66 1009.86 1010.02 1010.18 1010.30 1010.50 1010.66 1010.78 1010.94 1011.10 1011.26 1011.38 1011.50 1011.62 1011.74 1011.90 1012.02 1012.14 1012.22 1012.30 1012.46 1012.66 1012.82 1012.94 1013.02 1013.10 1013.18 1013.30 1013.34 1013.42 1013.50 1013.62 1013.66 1013.74 1013.78 1013.90 1014.02 1014.06 1014.14 1014.18 1014.30 1014.38 1014.46 1014.58
1005.58 1005.90 1006.18 1006.46 1006.66 1006.90 1007.10 1007.30 1007.46 1007.66 1007.78 1007.90 1007.98 1008.10 1008.30 1008.46 1008.54 1008.62 1008.74 1008.78 1008.78 1008.74 1008.74 1008.86 1009.02 1009.22 1009.42 1009.62 1009.74 1009.90 1010.02 1010.18 1010.34 1010.50 1010.66 1010.82 1010.98 1011.14 1011.30 1011.46 1011.58 1011.70 1011.78 1011.90 1012.02 1012.18 1012.30 1012.46 1012.54 1012.66 1012.74 1012.86 1012.94 1013.02 1013.06 1013.18 1013.26 1013.34 1013.46 1013.50 1013.62 1013.74 1013.78 1013.82 1013.90 1013.98 1014.02 1014.14 1014.30
1005.14 1005.46 1005.90 1006.18 1006.42 1006.62 1006.90 1007.06 1007.22 1007.38 1007.50 1007.62 1007.70 1007.82 1007.94 1008.06 1008.18 1008.26 1008.30 1008.30 1008.30 1008.30 1008.34 1008.46 1008.62 1008.82 1009.02 1009.18 1009.30 1009.42 1009.54 1009.74 1009.90 1010.02 1010.22 1010.42 1010.58 1010.74 1010.94 1011.10 1011.22 1011.34 1011.46 1011.58 1011.66 1011.78 1011.94 1012.02 1012.18 1012.26 1012.34 1012.46 1012.58 1012.66 1012.74 1012.86 1012.94 1013.02 1013.14 1013.22 1013.30 1013.42 1013.50 1013.54 1013.62 1013.66 1013.74 1013.90 1014.02
1004.70 1005.02 1005.42 1005.78 1006.10 1006.34 1006.58 1006.74 1006.82 1006.98 1007.14 1007.26 1007.34 1007.46 1007.58 1007.70 1007.78 1007.90 1007.90 1007.90 1007.94 1007.94 1007.98 1008.10 1008.26 1008.42 1008.58 1008.74 1008.90 1009.02 1009.18 1009.30 1009.46 1009.66 1009.86 1010.02 1010.22 1010.42 1010.58 1010.74 1010.90 1011.02 1011.14 1011.22 1011.30 1011.46 1011.58 1011.66 1011.74 1011.86 1011.98 1012.10 1012.18 1012.30 1012.46 1012.58 1012.70 1012.78 1012.86 1012.90 1013.02 1013.14 1013.22 1013.30 1013.38 1013.46 1013.58 1013.70 1013.78
1004.42 1004.58 1004.90 1005.38 1005.74 1006.02 1006.14 1006.30 1006.38 1006.50 1006.70 1006.90 1006.98 1007.06 1007.18 1007.30 1007.38 1007.46 1007.46 1007.50 1007.58 1007.62 1007.66 1007.78 1007.94 1008.10 1008.26 1008.34 1008.50 1008.70 1008.86 1008.98 1009.18 1009.30 1009.50 1009.66 1009.86 1010.06 1010.22 1010.38 1010.54 1010.66 1010.78 1010.90 1011.02 1011.10 1011.18 1011.26 1011.34 1011.46 1011.62 1011.74 1011.82 1011.98 1012.10 1012.26 1012.38 1012.50 1012.58 1012.70 1012.78 1012.90 1013.02 1013.10 1013.18 1013.30 1013.42 1013.54 1013.62
1004.18 1004.30 1004.58 1004.90 1005.30 1005.58 1005.70 1005.82 1005.90 1006.06 1006.26 1006.46 1006.50 1006.58 1006.70 1006.82 1006.90 1007.02 1007.14 1007.18 1007.26 1007.34 1007.46 1007.58 1007.70 1007.86 1008.02 1008.18 1008.26 1008.42 1008.58 1008.74 1008.90 1009.06 1009.22 1009.38 1009.54 1009.74 1009.90 1010.02 1010.18 1010.30 1010.42 1010.54 1010.66 1010.74 1010.82 1010.90 1010.98 1011.10 1011.26 1011.38 1011.50 1011.66 1011.78 1011.98 1012.14 1012.30 1012.42 1012.54 1012.62 1012.74 1012.86 1012.98 1013.06 1013.18 1013.30 1013.46 1013.58
1003.98 1004.10 1004.22 1004.46 1004.78 1005.02 1005.22 1005.38 1005.46 1005.62 1005.74 1005.90 1006.02 1006.10 1006.18 1006.30 1006.46 1006.62 1006.78 1006.90 1007.02 1007.14 1007.26 1007.34 1007.46 1007.62 1007.78 1007.98 1008.06 1008.18 1008.34 1008.50 1008.62 1008.78 1008.94 1009.06 1009.26 1009.42 1009.54 1009.66 1009.78 1009.90 1010.10 1010.22 1010.34 1010.46 1010.58 1010.62 1010.74 1010.86 1010.98 1011.10 1011.26 1011.38 1011.54 1011.70 1011.90 1012.06 1012.26 1012.38 1012.54 1012.66 1012.78 1012.90 1013.02 1013.18 1013.30 1013.46 1013.58
1003.66 1003.78 1003.94 1004.06 1004.30 1004.50 1004.74 1004.94 1005.02 1005.10 1005.22 1005.38 1005.46 1005.62 1005.74 1005.90 1006.06 1006.30 1006.50 1006.66 1006.74 1006.90 1007.02 1007.18 1007.26 1007.38 1007.58 1007.74 1007.90 1008.02 1008.18 1008.30 1008.42 1008.58 1008.70 1008.82 1008.94 1009.10 1009.22 1009.34 1009.50 1009.62 1009.78 1009.94 1010.06 1010.18 1010.30 1010.38 1010.50 1010.62 1010.78 1010.90 1011.06 1011.18 1011.34 1011.50 1011.70 1011.90 1012.10 1012.30 1012.46 1012.58 1012.74 1012.90 1013.06 1013.22 1013.38 1013.54 1013.62
1003.34 1003.50 1003.62 1003.74 1003.90 1004.14 1004.38 1004.58 1004.74 1004.78 1004.86 1004.94 1005.06 1005.22 1005.42 1005.62 1005.78 1006.02 1006.22 1006.46 1006.58 1006.74 1006.90 1007.02 1007.14 1007.22 1007.38 1007.54 1007.74 1007.90 1008.02 1008.14 1008.22 1008.30 1008.46 1008.58 1008.70 1008.86 1008.98 1009.14 1009.26 1009.38 1009.54 1009.66 1009.78 1009.90 1010.02 1010.14 1010.30 1010.46 1010.62 1010.82 1010.98 1011.14 1011.30 1011.46 1011.62 1011.86 1012.02 1012.22 1012.42 1012.58 1012.74 1012.90 1013.06 1013.22 1013.34 1013.50 1013.62
1003.06 1003.22 1003.34 1003.46 1003.62 1003.82 1004.02 1004.30 1004.46 1004.58 1004.62 1004.74 1004.90 1005.06 1005.22 1005.38 1005.58 1005.74 1005.98 1006.18 1006.38 1006.58 1006.74 1006.86 1007.02 1007.10 1007.22 1007.38 1007.58 1007.74 1007.90 1007.98 1008.06 1008.18 1008.26 1008.38 1008.50 1008.62 1008.74 1008.90 1009.02 1009.14 1009.30 1009.42 1009.54 1009.66 1009.78 1009.94 1010.10 1010.30 1010.50 1010.70 1010.90 1011.10 1011.30 1011.46 1011.66 1011.86 1012.02 1012.22 1012.38 1012.58 1012.74 1012.86 1012.98 1013.14 1013.26 1013.38 1013.54
1002.82 1002.94 1003.10 1003.22 1003.38 1003.58 1003.74 1003.98 1004.18 1004.34 1004.50 1004.66 1004.82 1004.98 1005.14 1005.30 1005.46 1005.62 1005.74 1005.90 1006.14 1006.38 1006.54 1006.66 1006.86 1007.02 1007.18 1007.30 1007.46 1007.62 1007.74 1007.90 1007.98 1008.06 1008.14 1008.22 1008.34 1008.46 1008.54 1008.66 1008.82 1008.94 1009.06 1009.18 1009.34 1009.50 1009.62 1009.74 1009.94 1010.18 1010.38 1010.58 1010.90 1011.10 1011.30 1011.46 1011.70 1011.90 1012.02 1012.22 1012.38 1012.54 1012.70 1012.82 1012.94 1013.02 1013.18 1013.30 1013.42
1002.58 1002.74 1002.90 1003.02 1003.18 1003.34 1003.58 1003.74 1003.94 1004.18 1004.34 1004.50 1004.70 1004.86 1005.02 1005.22 1005.38 1005.50 1005.62 1005.82 1006.02 1006.18 1006.42 1006.58 1006.70 1006.86 1007.02 1007.22 1007.38 1007.50 1007.62 1007.78 1007.90 1008.02 1008.06 1008.14 1008.22 1008.30 1008.38 1008.50 1008.62 1008.74 1008.90 1009.02 1009.18 1009.30 1009.46 1009.66 1009.82 1010.02 1010.26 1010.54 1010.82 1011.02 1011.30 1011.50 1011.66 1011.86 1012.02 1012.18 1012.34 1012.50 1012.66 1012.86 1012.94 1013.02 1013.14 1013.22 1013.30
1002.46 1002.58 1002.74 1002.90 1003.06 1003.22 1003.42 1003.58 1003.78 1003.98 1004.18 1004.34 1004.50 1004.70 1004.90 1005.02 1005.18 1005.38 1005.58 1005.74 1005.94 1006.14 1006.30 1006.46 1006.62 1006.74 1006.90 1007.10 1007.30 1007.46 1007.62 1007.74 1007.82 1007.90 1007.98 1008.06 1008.18 1008.22 1008.30 1008.38 1008.54 1008.66 1008.74 1008.90 1009.02 1009.18 1009.34 1009.58 1009.74 1009.98 1010.18 1010.46 1010.74 1010.98 1011.22 1011.46 1011.62 1011.78 1011.98 1012.10 1012.26 1012.42 1012.58 1012.78 1012.94 1013.06 1013.18 1013.22 1013.26
1002.38 1002.46 1002.58 1002.74 1002.90 1003.10 1003.30 1003.46 1003.62 1003.82 1004.02 1004.18 1004.34 1004.54 1004.70 1004.90 1005.06 1005.26 1005.46 1005.66 1005.82 1006.02 1006.18 1006.38 1006.58 1006.74 1006.90 1007.02 1007.18 1007.38 1007.54 1007.66 1007.78 1007.90 1007.94 1008.02 1008.10 1008.18 1008.30 1008.42 1008.54 1008.62 1008.74 1008.78 1008.90 1009.06 1009.26 1009.46 1009.74 1009.94 1010.18 1010.46 1010.70 1010.90 1011.14 1011.34 1011.46 1011.62 1011.82 1012.02 1012.18 1012.30 1012.46 1012.62 1012.82 1013.02 1013.14 1013.18 1013.18
1002.30 1002.42 1002.46 1002.58 1002.74 1002.90 1003.10 1003.30 1003.46 1003.62 1003.82 1003.98 1004.18 1004.34 1004.54 1004.74 1004.90 1005.10 1005.30 1005.46 1005.66 1005.86 1006.06 1006.30 1006.46 1006.66 1006.86 1007.02 1007.18 1007.30 1007.46 1007.62 1007.70 1007.78 1007.90 1008.02 1008.06 1008.18 1008.30 1008.42 1008.50 1008.58 1008.62 1008.78 1009.02 1009.22 1009.34 1009.50 1009.70 1009.90 1010.18 1010.42 1010.66 1010.86 1011.02 1011.22 1011.38 1011.58 1011.74 1011.94 1012.10 1012.30 1012.46 1012.58 1012.70 1012.78 1012.90 1012.98 1012.94
1002.22 1002.30 1002.42 1002.46 1002.58 1002.74 1002.90 1003.10 1003.26 1003.46 1003.62 1003.78 1003.98 1004.18 1004.34 1004.54 1004.74 1004.90 1005.10 1005.30 1005.46 1005.70 1005.90 1006.14 1006.34 1006.58 1006.78 1007.02 1007.18 1007.30 1007.46 1007.54 1007.62 1007.74 1007.90 1008.02 1008.06 1008.14 1008.22 1008.30 1008.42 1008.46 1008.58 1008.78 1009.06 1009.26 1009.34 1009.50 1009.66 1009.86 1010.10 1010.34 1010.58 1010.82 1011.02 1011.22 1011.34 1011.54 1011.74 1011.90 1012.10 1012.30 1012.46 1012.54 1012.58 1012.58 1012.66 1012.74 1012.78
1002.06 1002.22 1002.30 1002.38 1002.46 1002.58 1002.74 1002.86 1003.06 1003.26 1003.46 1003.62 1003.78 1003.98 1004.18 1004.34 1004.54 1004.74 1004.90 1005.10 1005.30 1005.54 1005.74 1005.98 1006.18 1006.46 1006.70 1006.90 1007.06 1007.22 1007.34 1007.46 1007.62 1007.74 1007.90 1008.02 1008.06 1008.14 1008.18 1008.22 1008.30 1008.38 1008.50 1008.82 1009.06 1009.18 1009.30 1009.46 1009.66 1009.90 1010.06 1010.30 1010.58 1010.86 1011.06 1011.18 1011.30 1011.50 1011.70 1011.90 1012.14 1012.30 1012.38 1012.38 1012.38 1012.38 1012.46 1012.58 1012.62
1001.86 1002.02 1002.18 1002.30 1002.38 1002.46 1002.54 1002.66 1002.90 1003.06 1003.26 1003.42 1003.58 1003.78 1003.98 1004.14 1004.34 1004.54 1004.74 1004.90 1005.14 1005.38 1005.62 1005.82 1006.02 1006.26 1006.54 1006.74 1006.90 1007.10 1007.22 1007.34 1007.46 1007.66 1007.78 1007.90 1008.02 1008.14 1008.18 1008.22 1008.22 1008.34 1008.58 1008.90 1009.14 1009.26 1009.34 1009.54 1009.74 1009.94 1010.14 1010.34 1010.54 1010.78 1011.02 1011.22 1011.34 1011.50 1011.66 1011.90 1012.10 1012.26 1012.30 1012.30 1012.30 1012.38 1012.46 1012.46 1012.50
1001.58 1001.86 1002.06 1002.30 1002.34 1002.38 1002.46 1002.54 1002.70 1002.86 1003.02 1003.18 1003.38 1003.58 1003.74 1003.94 1004.14 1004.30 1004.50 1004.70 1004.90 1005.14 1005.38 1005.62 1005.78 1006.06 1006.30 1006.54 1006.70 1006.90 1007.06 1007.22 1007.34 1007.50 1007.70 1007.82 1007.90 1007.98 1008.10 1008.18 1008.22 1008.42 1008.70 1009.02 1009.26 1009.42 1009.54 1009.70 1009.90 1010.06 1010.22 1010.42 1010.54 1010.74 1011.02 1011.22 1011.38 1011.54 1011.74 1011.90 1012.02 1012.18 1012.26 1012.30 1012.30 1012.34 1012.34 1012.38 1012.42
1001.30 1001.62 1001.90 1002.18 1002.26 1002.30 1002.34 1002.42 1002.46 1002.62 1002.78 1002.98 1003.18 1003.38 1003.58 1003.78 1003.90 1004.06 1004.22 1004.46 1004.62 1004.90 1005.10 1005.30 1005.62 1005.86 1006.10 1006.30 1006.46 1006.66 1006.82 1007.02 1007.18 1007.34 1007.46 1007.66 1007.74 1007.78 1007.90 1008.02 1008.14 1008.34 1008.62 1008.94 1009.18 1009.46 1009.62 1009.74 1009.94 1010.26 1010.54 1010.70 1010.74 1010.82 1010.98 1011.18 1011.34 1011.54 1011.74 1011.90 1012.02 1012.06 1012.14 1012.18 1012.22 1012.26 1012.30 1012.34 1012.42
1000.98 1001.30 1001.62 1001.90 1002.10 1002.22 1002.30 1002.30 1002.38 1002.46 1002.58 1002.78 1002.98 1003.18 1003.34 1003.50 1003.66 1003.82 1003.98 1004.14 1004.34 1004.58 1004.78 1005.02 1005.34 1005.62 1005.82 1005.98 1006.22 1006.42 1006.58 1006.70 1006.86 1007.02 1007.18 1007.30 1007.42 1007.50 1007.62 1007.82 1007.98 1008.22 1008.54 1008.90 1009.14 1009.34 1009.62 1009.74 1009.94 1010.18 1010.46 1010.66 1010.74 1010.86 1010.98 1011.14 1011.30 1011.50 1011.70 1011.82 1011.90 1011.98 1012.02 1012.10 1012.14 1012.18 1012.22 1012.30 1012.34
1000.62 1000.90 1001.26 1001.58 1001.86 1002.02 1002.14 1002.22 1002.30 1002.38 1002.50 1002.62 1002.78 1002.98 1003.10 1003.26 1003.38 1003.54 1003.74 1003.90 1004.10 1004.30 1004.58 1004.90 1005.18 1005.38 1005.58 1005.78 1005.98 1006.14 1006.26 1006.42 1006.50 1006.62 1006.74 1006.94 1007.10 1007.26 1007.42 1007.62 1007.78 1008.02 1008.38 1008.90 1009.02 1009.26 1009.54 1009.74 1009.98 1010.18 1010.42 1010.66 1010.74 1010.90 1011.02 1011.18 1011.30 1011.50 1011.62 1011.70 1011.74 1011.82 1011.90 1011.98 1012.06 1012.10 1012.14 1012.18 1012.18
1000.30 1000.54 1000.82 1001.18 1001.46 1001.70 1001.90 1002.06 1002.22 1002.30 1002.38 1002.46 1002.58 1002.74 1002.86 1003.02 1003.18 1003.30 1003.46 1003.66 1003.86 1004.06 1004.30 1004.58 1004.86 1005.10 1005.30 1005.50 1005.70 1005.86 1005.94 1006.02 1006.18 1006.30 1006.46 1006.62 1006.86 1007.02 1007.26 1007.46 1007.66 1007.86 1008.18 1008.78 1008.90 1009.10 1009.38 1009.62 1009.90 1010.18 1010.38 1010.58 1010.74 1010.86 1011.02 1011.26 1011.38 1011.46 1011.54 1011.62 1011.62 1011.70 1011.74 1011.82 1011.86 1011.90 1011.90 1011.94 1011.98
999.98 1000.18 1000.42 1000.70 1001.02 1001.30 1001.62 1001.86 1002.02 1002.18 1002.30 1002.42 1002.46 1002.54 1002.62 1002.78 1002.94 1003.10 1003.26 1003.42 1003.62 1003.78 1003.98 1004.18 1004.46 1004.70 1004.90 1005.10 1005.30 1005.50 1005.62 1005.78 1005.90 1005.98 1006.18 1006.38 1006.62 1006.90 1007.14 1007.34 1007.58 1007.82 1008.18 1008.62 1008.78 1008.98 1009.26 1009.54 1009.82 1010.06 1010.30 1010.54 1010.74 1010.90 1011.06 1011.22 1011.30 1011.38 1011.46 1011.46 1011.50 1011.54 1011.62 1011.62 1011.62 1011.70 1011.74 1011.74 1011.78
999.62 999.82 1000.02 1000.26 1000.54 1000.90 1001.22 1001.54 1001.82 1002.02 1002.18 1002.26 1002.30 1002.38 1002.46 1002.58 1002.74 1002.86 1002.98 1003.18 1003.38 1003.58 1003.74 1003.90 1004.14 1004.34 1004.58 1004.78 1004.98 1005.18 1005.38 1005.58 1005.70 1005.82 1005.98 1006.18 1006.46 1006.74 1007.02 1007.26 1007.46 1007.86 1008.30 1008.58 1008.74 1008.94 1009.18 1009.46 1009.70 1009.90 1010.18 1010.46 1010.62 1010.82 1010.98 1011.10 1011.18 1011.26 1011.30 1011.34 1011.38 1011.38 1011.42 1011.46 1011.50 1011.50 1011.54 1011.62 1011.62
999.26 999.46 999.70 999.90 1000.14 1000.42 1000.78 1001.18 1001.50 1001.74 1001.94 1002.06 1002.18 1002.26 1002.34 1002.46 1002.54 1002.58 1002.74 1002.90 1003.14 1003.34 1003.58 1003.74 1003.90 1004.10 1004.30 1004.58 1004.74 1004.98 1005.14 1005.30 1005.50 1005.70 1005.90 1006.14 1006.38 1006.66 1006.94 1007.18 1007.34 1007.90 1008.46 1008.66 1008.82 1009.02 1009.18 1009.38 1009.62 1009.90 1010.18 1010.46 1010.58 1010.74 1010.90 1011.02 1011.14 1011.18 1011.22 1011.26 1011.30 1011.30 1011.34 1011.38 1011.46 1011.46 1011.54 1011.58 1011.58
998.90 999.14 999.38 999.62 999.82 1000.02 1000.30 1000.70 1001.06 1001.42 1001.66 1001.86 1002.02 1002.14 1002.26 1002.30 1002.42 1002.46 1002.54 1002.70 1002.90 1003.10 1003.30 1003.50 1003.74 1003.90 1004.10 1004.30 1004.50 1004.70 1004.86 1005.06 1005.30 1005.62 1005.90 1006.18 1006.42 1006.62 1006.90 1007.14 1007.38 1008.10 1008.78 1009.02 1009.14 1009.22 1009.30 1009.46 1009.66 1009.94 1010.26 1010.50 1010.62 1010.74 1010.90 1011.02 1011.14 1011.18 1011.18 1011.22 1011.22 1011.26 1011.34 1011.46 1011.50 1011.58 1011.62 1011.74 1011.90
998.58 998.78 999.06 999.34 999.58 999.74 999.94 1000.26 1000.70 1001.06 1001.34 1001.58 1001.82 1001.98 1002.14 1002.22 1002.30 1002.34 1002.42 1002.58 1002.74 1002.90 1003.02 1003.18 1003.46 1003.62 1003.86 1004.02 1004.26 1004.46 1004.62 1004.82 1005.06 1005.38 1005.78 1006.14 1006.42 1006.70 1007.02 1007.46 1008.22 1009.02 1009.58 1009.78 1009.82 1009.78 1009.78 1009.86 1009.98 1010.18 1010.38 1010.50 1010.62 1010.74 1010.90 1011.06 1011.14 1011.18 1011.26 1011.30 1011.34 1011.38 1011.46 1011.54 1011.62 1011.70 1011.90 1012.30 1012.62
998.30 998.50 998.78 999.06 999.30 999.54 999.74 999.98 1000.30 1000.66 1001.02 1001.30 1001.62 1001.90 1002.06 1002.18 1002.22 1002.26 1002.30 1002.42 1002.54 1002.62 1002.78 1002.94 1003.14 1003.34 1003.58 1003.82 1004.06 1004.42 1004.74 1005.14 1005.38 1005.74 1006.14 1006.54 1006.98 1007.34 1007.82 1008.46 1009.30 1009.90 1010.18 1010.34 1010.30 1010.30 1010.30 1010.34 1010.42 1010.58 1010.70 1010.70 1010.74 1010.82 1010.94 1011.06 1011.18 1011.26 1011.30 1011.38 1011.46 1011.54 1011.62 1011.66 1011.70 1011.78 1012.18 1012.82 1013.02
998.14 998.30 998.58 998.86 999.14 999.38 999.62 999.82 1000.02 1000.34 1000.70 1001.06 1001.46 1001.78 1001.98 1002.06 1002.14 1002.18 1002.22 1002.30 1002.38 1002.50 1002.62 1002.78 1002.98 1003.18 1003.46 1003.86 1004.38 1005.02 1005.70 1006.22 1006.54 1006.90 1007.30 1007.74 1008.14 1008.46 1008.82 1009.30 1009.82 1010.22 1010.50 1010.62 1010.58 1010.54 1010.50 1010.50 1010.58 1010.74 1010.90 1010.90 1010.94 1010.98 1011.02 1011.14 1011.18 1011.26 1011.34 1011.46 1011.54 1011.62 1011.62 1011.70 1011.74 1012.02 1012.50 1012.94 1013.18
998.02 998.22 998.46 998.70 998.94 999.18 999.46 999.70 999.90 1000.10 1000.42 1000.82 1001.18 1001.50 1001.74 1001.86 1001.98 1002.06 1002.14 1002.22 1002.30 1002.46 1002.58 1002.78 1003.02 1003.34 1003.86 1004.46 1005.22 1005.98 1006.62 1007.18 1007.62 1008.02 1008.38 1008.70 1008.98 1009.22 1009.46 1009.82 1010.18 1010.50 1010.74 1010.86 1010.86 1010.78 1010.74 1010.74 1010.74 1010.82 1010.90 1010.94 1011.02 1011.06 1011.14 1011.18 1011.26 1011.30 1011.38 1011.46 1011.54 1011.62 1011.66 1011.74 1012.02 1012.50 1012.90 1013.18 1013.42
Wind_Speed
11 11 10 10 9 9 9 8 9 9 9 10 11 11 11 11 11 10 10 9 8 8 7 7 7 8 8 10 11 11 11 11 11 11 11 11 11 11 11 11 11 11 11 11 11 10 10 11 9 7 6 6 7 8 8 8 9 10 10 10 10 10 10 11 10 11 12 13 10
13 12 11 11 10 10 9 8 8 8 9 10 10 11 12 11 11 12 12 12 10 9 9 8 8 9 9 10 11 11 11 11 12 11 11 12 12 12 12 11 11 11 12 12 12 10 9 10 9 8 7 6 7 8 9 9 10 10 11 12 10 9 9 10 10 11 12 13 12
14 13 13 13 12 11 10 9 9 10 11 11 11 11 12 12 12 12 12 12 12 12 10 9 10 10 10 11 10 10 11 11 12 12 11 11 12 13 12 11 11 12 12 12 12 11 10 11 9 8 7 7 8 8 9 10 10 10 11 13 10 9 8 9 10 10 10 10 11
16 15 15 15 15 14 12 10 12 13 14 12 13 13 13 12 12 12 12 13 14 13 12 11 11 11 11 11 11 11 11 12 13 13 12 12 12 13 13 13 13 13 13 13 13 13 12 12 10 8 8 9 10 10 9 9 10 10 10 10 9 9 9 9 9 9 8 8 10
17 16 16 15 17 16 14 13 14 15 14 13 13 13 13 12 12 12 12 13 13 13 13 14 12 12 11 11 12 12 12 13 13 12 12 13 13 14 14 14 14 14 14 14 14 14 13 13 10 9 9 10 9 9 10 10 11 10 9 8 8 9 9 9 9 8 7 7 8
16 16 16 15 18 17 15 14 16 15 14 13 13 14 13 12 12 12 13 12 13 14 14 15 13 12 12 13 12 11 12 12 12 13 13 14 14 14 15 15 15 15 14 14 15 15 15 14 10 9 9 9 9 10 11 12 11 11 10 9 9 9 9 10 9 9 9 9 10
15 16 16 16 17 17 15 14 14 14 14 13 15 16 15 14 14 15 14 13 12 13 13 13 13 13 13 14 12 12 12 12 13 14 15 15 15 15 16 16 16 16 16 16 16 15 15 14 11 9 9 9 9 10 13 13 11 11 11 11 9 9 10 11 10 9 10 13 14
16 16 16 16 17 17 16 15 14 13 13 12 14 16 17 17 17 16 15 13 12 12 12 12 14 15 16 16 14 14 14 14 14 15 15 15 16 16 17 17 17 17 18 17 16 16 15 13 11 10 10 9 8 10 12 15 14 13 13 13 11 10 10 11 11 11 12 14 16
15 15 16 16 16 16 16 16 15 14 13 13 15 16 17 17 17 17 15 13 13 13 14 13 16 18 18 18 17 16 16 16 16 16 16 16 17 17 17 17 18 18 18 17 17 17 16 13 11 10 10 9 9 11 13 15 16 16 15 13 12 12 11 11 12 13 13 14 16
15 16 16 16 16 16 16 16 15 15 15 15 16 17 17 16 16 16 15 13 14 15 16 16 18 19 19 19 18 18 17 17 17 18 18 17 18 18 18 17 18 18 18 17 17 17 17 13 12 12 12 11 12 13 15 16 17 17 16 12 12 14 15 14 14 14 15 14 15
18 17 17 16 17 17 16 16 15 15 15 15 16 17 17 17 17 16 16 15 16 18 19 18 19 19 19 19 18 18 18 17 17 18 19 19 19 19 19 18 19 19 19 18 17 16 15 13 14 15 16 14 15 15 16 17 17 18 17 14 14 16 17 16 16 15 15 15 15
19 19 18 17 18 18 17 16 15 15 16 16 17 17 17 17 18 18 18 19 19 19 19 19 19 19 19 17 18 18 18 18 18 18 19 19 20 20 20 20 20 20 20 19 17 15 14 15 16 17 18 18 15 14 15 18 18 18 18 17 17 17 17 18 17 15 14 14 15
19 19 19 19 19 19 19 18 16 16 16 17 18 18 18 18 19 20 21 21 20 18 17 18 18 18 18 17 17 17 17 18 19 19 18 19 20 20 21 20 21 21 20 19 18 16 15 16 18 19 19 19 16 15 15 17 18 18 18 19 18 18 18 18 18 16 15 15 15
18 19 19 19 20 20 20 19 17 16 17 18 18 18 18 18 20 20 20 20 19 17 16 16 16 16 16 17 17 17 17 17 18 19 19 19 19 20 20 20 21 20 20 18 18 18 18 18 19 19 20 20 18 17 17 17 17 18 18 18 19 18 18 18 17 17 16 16 16
18 18 19 20 21 20 19 20 17 16 17 19 19 19 18 18 19 19 19 19 19 17 15 15 14 15 16 18 17 18 18 17 18 18 19 19 19 19 20 19 20 20 19 18 18 19 20 20 20 20 20 20 20 19 18 18 17 17 17 17 18 18 17 17 17 16 16 16 16
19 19 19 21 21 20 19 19 16 16 17 19 20 19 19 17 18 18 19 19 17 16 15 15 15 15 15 16 17 17 17 17 17 18 18 18 19 19 19 19 20 20 20 20 19 19 20 20 19 19 20 19 19 19 18 18 17 17 17 16 16 16 16 16 15 15 15 14 14
20 19 20 21 22 21 20 19 16 16 18 19 20 20 18 17 17 17 18 18 16 15 16 17 16 15 15 15 15 15 15 16 16 17 17 17 18 18 19 19 19 19 20 20 20 20 20 19 18 18 19 19 18 18 18 17 16 16 15 15 15 14 14 13 13 12 12 12 12
20 20 20 21 22 21 21 20 18 18 19 20 20 19 18 17 17 17 17 18 17 17 18 18 17 16 15 15 14 13 13 14 15 15 16 16 17 18 18 18 18 18 19 19 19 19 20 20 19 18 17 17 16 16 16 15 14 14 13 12 12 12 11 10 10 9 8 8 9
20 20 20 21 21 21 21 21 19 19 19 19 19 18 18 18 18 18 18 19 19 19 19 18 17 16 15 14 13 12 12 13 14 15 16 16 16 17 17 18 17 18 18 18 18 19 19 19 18 17 16 15 15 14 14 13 12 11 10 9 9 8 8 8 8 7 7 7 7
20 20 20 20 20 20 20 20 19 19 17 16 16 18 19 19 19 19 19 20 19 19 19 19 17 15 15 14 14 13 13 12 14 15 15 15 16 16 17 17 17 17 17 17 17 17 18 18 17 17 16 15 14 13 12 11 9 8 7 6 6 6 6 7 7 8 8 8 8
20 20 20 19 20 20 20 20 20 19 18 16 16 17 18 17 17 18 19 19 19 19 19 19 18 16 15 15 15 15 14 12 13 14 15 15 15 16 16 16 16 16 16 16 16 17 17 17 16 15 14 13 12 11 10 8 7 6 6 5 4 5 5 6 7 8 8 9 8
19 19 19 19 19 19 19 19 19 19 19 18 18 18 18 17 17 17 17 17 17 18 19 18 18 17 16 15 15 15 14 12 13 13 14 14 14 15 15 15 15 16 16 16 16 16 16 15 14 13 11 10 9 8 8 7 7 6 6 5 5 5 5 6 7 7 8 8 9
18 18 18 18 18 18 19 19 19 19 19 19 19 19 19 18 18 18 17 16 16 16 17 16 15 15 15 14 14 14 13 13 13 13 13 13 14 14 14 14 14 15 15 14 14 14 13 11 10 9 8 8 8 8 8 8 8 7 7 7 7 6 6 6 6 7 8 9 9
18 18 17 16 18 19 19 19 19 19 19 19 19 19 19 19 19 18 18 17 17 17 16 13 12 12 12 12 12 13 13 13 14 14 14 14 13 13 12 11 11 11 11 10 9 9 9 7 7 7 7 7 8 8 9 9 9 9 9 8 8 7 7 7 8 9 10 11 11
18 18 17 16 18 19 19 19 19 19 20 19 19 19 19 19 19 18 18 19 18 17 16 14 11 10 9 9 10 11 11 12 13 14 13 13 12 11 10 9 8 8 7 6 6 6 7 6 7 7 7 7 7 8 8 9 9 8 8 8 8 8 8 9 11 12 13 13 13
18 18 18 18 18 19 19 20 20 20 20 19 19 19 19 19 18 18 18 19 18 17 16 15 13 11 9 9 10 11 11 11 11 11 11 11 11 11 10 9 7 6 5 5 6 8 9 9 9 8 8 8 7 7 7 7 8 7 7 7 8 9 10 12 14 15 16 15 14
18 18 18 18 18 19 20 20 20 19 19 19 19 19 19 18 17 18 18 18 18 17 15 14 13 11 10 11 12 12 11 10 10 10 9 9 9 10 10 10 8 6 5 5 8 10 12 12 11 11 10 9 8 7 7 7 7 7 8 8 9 11 13 14 15 15 15 15 15
18 17 17 17 18 19 19 19 20 20 20 20 20 19 19 19 18 18 18 18 17 16 15 13 12 11 9 10 11 12 12 11 11 10 10 10 10 10 9 8 7 6 5 6 9 11 12 13 12 12 10 9 8 7 7 7 7 7 8 8 10 11 13 13 13 12 13 14 14
19 18 16 16 17 18 19 19 20 20 20 20 20 19 19 19 19 19 19 18 18 16 14 12 11 10 9 10 11 12 13 13 12 11 11 12 13 13 12 10 9 7 6 8 9 10 10 12 11 11 10 8 7 7 6 7 7 7 7 8 9 10 11 11 11 11 11 12 12
19 18 16 16 17 18 18 19 19 19 19 19 19 19 19 19 20 20 19 19 18 17 14 12 11 11 11 12 12 13 13 14 13 13 14 15 16 16 15 14 12 9 8 9 10 10 10 11 10 10 9 8 7 6 6 7 7 7 7 7 9 10 12 12 12 11 11 10 10
19 18 18 18 18 19 19 18 18 19 18 17 19 19 20 20 20 20 19 19 18 16 15 13 13 14 14 14 13 13 14 15 15 15 16 17 18 18 17 16 14 11 9 10 12 12 12 11 11 11 11 10 8 6 6 7 7 7 7 8 10 11 11 11 11 11 12 11 11
20 20 20 20 20 20 19 19 18 18 18 18 19 19 20 20 20 19 18 18 17 17 16 15 15 15 16 15 15 15 15 16 16 16 17 17 18 18 17 16 15 13 11 12 13 13 13 12 12 12 11 11 8 7 7 7 7 8 9 10 12 12 12 10 10 11 13 13 12
20 20 21 21 21 20 20 19 19 18 18 19 19 19 19 19 19 18 18 17 16 17 17 16 17 17 17 17 16 16 17 17 17 17 16 16 17 17 17 15 14 12 11 14 15 15 14 13 13 13 13 12 9 8 8 8 8 8 9 10 11 12 13 13 12 12 13 13 12
21 21 21 21 21 21 20 20 19 19 19 19 19 19 19 18 18 18 17 16 15 15 15 16 16 17 17 17 17 17 16 15 15 16 16 16 16 16 15 13 10 8 9 16 16 16 16 15 14 14 14 13 10 9 10 11 10 9 10 11 11 12 13 13 13 13 12 12 11
21 21 21 21 20 20 20 20 20 19 19 19 19 19 18 18 18 17 17 15 14 14 14 14 14 15 15 15 16 16 15 14 14 14 14 14 14 14 14 13 11 8 10 15 16 16 16 16 16 16 15 13 10 10 11 12 11 11 11 12 12 12 12 12 11 10 10 9 9
20 20 20 20 19 19 20 20 20 20 20 20 19 19 18 17 17 16 15 14 14 14 14 14 14 14 15 15 15 15 15 15 14 13 12 12 12 13 13 14 11 9 11 14 14 15 16 16 16 16 15 12 10 9 9 10 9 10 11 12 12 11 11 10 8 7 6 5 6
19 19 19 18 18 18 19 19 20 20 20 20 19 18 18 17 16 15 14 14 14 15 15 15 15 15 15 15 14 14 14 15 13 12 11 10 11 12 12 12 7 5 7 7 9 11 13 15 16 15 14 11 9 8 8 8 7 8 9 10 10 9 7 5 4 4 3 4 7
18 18 17 17 17 17 17 18 18 19 19 19 18 17 16 16 15 15 14 13 14 14 15 15 15 15 15 14 14 13 13 11 10 10 9 9 8 8 7 5 6 9 9 6 2 2 5 8 10 11 11 9 8 7 6 6 5 5 6 6 6 5 3 2 2 2 4 11 13
16 16 16 16 16 16 16 16 17 17 18 18 16 15 15 15 14 13 13 13 13 14 14 14 14 14 13 12 9 6 3 2 3 4 5 5 5 6 8 11 14 14 13 14 12 8 4 2 3 4 5 5 5 5 4 4 4 4 4 4 3 2 2 2 1 2 7 14 16
14 14 14 14 14 14 14 15 15 15 15 16 15 15 15 15 14 13 12 12 12 13 13 13 12 9 6 4 6 10 15 17 17 17 16 16 16 16 16 16 14 14 14 16 15 13 9 6 3 0 2 3 4 3 2 2 3 4 4 3 2 2 2 1 1 5 9 12 14
11 11 11 12 12 13 13 14 14 13 13 14 15 14 14 14 13 13 12 11 12 11 11 10 7 2 5 11 14 18 20 20 20 19 19 18 18 17 16 15 14 14 14 15 16 15 12 9 5 2 2 2 3 3 2 2 3 4 4 3 2 2 1 1 5 7 9 10 11
Wind_Direction
178 177 178 180 180 181 182 183 183 184 185 186 189 192 194 197 201 205 209 212 213 209 202 192 184 182 184 187 189 191 194 198 198 196 192 189 190 190 191 194 195 192 190 192 190 191 193 196 194 193 193 193 196 199 202 204 205 207 210 211 214 216 218 221 225 227 228 231 235
178 177 176 176 178 180 180 179 179 182 184 187 189 192 194 197 200 204 208 212 213 212 208 202 192 186 184 185 188 190 193 198 199 197 194 192 192 193 193 194 196 194 192 192 191 190 193 196 196 197 198 197 200 202 205 208 207 208 210 213 214 215 217 220 224 227 229 231 235
179 178 177 177 179 180 179 177 179 182 185 188 189 192 195 197 199 203 206 210 210 210 208 206 199 192 187 185 186 190 194 198 199 198 197 195 196 196 196 195 198 198 196 195 194 193 194 195 197 200 202 201 202 204 207 210 209 210 212 214 215 216 218 221 224 228 232 234 235
181 180 180 180 181 181 181 180 181 184 186 189 190 193 195 197 198 201 204 207 207 207 206 205 202 197 191 186 187 191 195 199 200 201 200 199 199 199 199 198 200 201 201 199 199 197 196 196 199 203 207 208 208 208 208 209 210 211 213 215 217 219 221 224 225 228 232 237 237
184 183 183 182 182 183 184 185 185 186 187 189 190 192 194 196 198 200 202 203 203 203 203 203 203 201 197 192 191 194 198 201 202 203 203 202 202 202 203 202 202 204 205 204 203 201 199 198 201 206 209 211 210 211 211 210 211 213 214 215 218 220 223 226 227 227 229 231 234
185 185 184 182 182 184 186 189 188 187 187 189 190 191 193 194 196 197 199 199 200 200 201 202 203 204 201 198 196 198 201 204 205 205 206 206 205 205 205 206 206 206 207 207 206 205 203 201 204 208 211 213 215 215 214 212 213 214 216 217 218 220 223 226 227 228 228 228 229
186 185 183 182 182 184 187 188 187 186 187 189 190 191 192 193 194 195 196 196 196 197 199 201 203 204 203 200 200 202 204 206 207 208 208 208 207 206 206 207 208 209 209 209 208 207 206 205 208 210 211 212 217 218 216 214 214 215 217 218 218 220 222 225 226 226 228 229 229
186 184 183 184 183 184 186 186 184 184 186 189 188 190 191 192 192 193 193 194 194 196 197 200 202 202 202 200 201 203 206 207 207 207 208 209 208 208 208 208 210 210 211 211 209 208 207 207 210 212 213 213 216 218 218 217 216 217 219 220 220 221 223 225 225 225 226 228 229
185 184 183 186 186 185 185 186 184 184 186 189 187 188 189 191 191 191 191 193 195 196 198 200 200 200 200 200 201 203 204 205 205 205 206 207 207 208 208 209 210 211 212 212 211 209 208 208 210 213 214 215 216 218 219 219 219 220 220 222 223 223 224 227 228 228 228 229 229
183 183 184 188 189 188 187 187 185 186 188 189 187 187 188 190 191 191 192 194 197 198 199 199 198 198 199 201 202 202 202 203 203 203 204 205 207 207 208 209 210 211 212 212 212 211 210 209 211 213 215 216 218 219 221 221 222 222 222 223 224 225 226 227 229 230 230 230 230
182 181 183 187 190 190 190 189 187 188 189 191 189 188 189 191 193 193 194 196 198 199 198 197 196 197 199 201 202 201 200 200 201 202 203 204 206 207 208 209 210 211 212 212 212 211 211 211 213 215 216 217 219 221 222 222 224 225 225 226 226 228 229 229 229 230 231 231 231
183 180 181 185 189 190 191 191 190 190 191 192 191 191 191 193 194 195 196 197 198 198 197 195 195 196 197 200 200 200 199 199 200 202 203 204 206 207 209 210 211 212 212 212 212 212 213 213 214 216 217 218 219 221 223 224 225 227 228 229 229 230 231 232 231 231 231 231 232
186 181 179 182 186 189 191 192 192 191 192 193 194 193 192 193 194 195 197 197 197 196 195 194 194 195 196 198 198 198 198 198 200 201 203 204 205 207 208 210 211 212 213 213 212 213 214 215 216 218 219 219 220 221 223 224 226 228 229 230 231 232 233 234 234 234 234 234 235
194 185 179 180 184 188 191 193 193 192 192 194 196 195 193 192 194 195 197 197 196 196 195 193 194 195 196 196 197 198 198 199 200 201 203 203 205 206 207 209 211 212 213 213 213 214 216 217 218 219 221 221 222 222 223 224 226 229 230 232 233 234 235 236 237 238 238 238 239
199 191 183 181 185 188 191 193 193 192 192 195 196 195 193 192 193 195 197 198 197 196 196 195 194 195 196 197 198 199 199 200 201 202 203 204 205 206 207 209 210 212 213 214 215 216 218 219 220 221 222 223 224 224 223 223 226 228 231 233 235 236 237 238 239 240 241 242 243
200 195 189 185 187 189 191 192 193 192 192 195 196 195 193 191 193 195 197 198 198 198 198 198 197 197 198 199 200 201 201 202 203 204 205 205 206 207 208 209 211 212 213 214 215 217 219 220 222 223 223 225 225 226 225 225 226 228 230 234 236 238 240 241 242 243 245 246 247
198 197 194 190 189 190 191 192 194 194 194 195 195 194 193 192 192 194 196 198 199 200 200 201 200 199 199 200 201 203 203 204 205 205 206 207 208 209 210 211 212 213 214 215 216 218 219 220 222 224 225 227 228 228 228 227 227 227 229 231 235 238 241 243 245 247 249 250 251
197 197 197 195 192 191 192 193 196 196 196 196 195 194 193 193 193 193 195 198 201 202 203 203 203 203 202 201 201 203 205 206 207 208 208 209 210 211 212 213 214 215 216 217 218 219 220 221 222 224 225 228 229 230 230 229 228 227 227 228 231 235 238 242 244 247 249 251 252
197 197 198 197 195 193 193 194 197 198 198 197 195 194 194 195 195 194 196 198 202 204 205 206 206 206 205 203 201 203 206 209 211 211 211 212 212 213 214 215 216 217 217 218 220 221 222 223 222 223 223 225 227 228 228 228 228 226 225 225 226 228 231 234 236 238 240 241 243
199 199 199 198 197 195 194 195 197 198 199 197 196 195 196 197 197 197 197 198 201 204 207 208 209 208 208 206 204 205 207 211 213 215 215 215 216 216 217 217 218 219 219 220 222 223 223 224 223 222 221 220 221 222 222 222 222 222 221 220 220 220 221 223 225 228 229 230 230
201 200 200 199 199 197 196 196 197 198 199 199 198 198 198 197 199 200 200 200 201 203 207 210 210 210 210 209 208 208 209 211 215 218 219 220 220 220 220 220 221 221 221 222 223 223 224 224 223 220 217 213 212 212 212 211 211 212 212 211 210 212 214 217 220 222 223 223 222
203 202 201 201 201 200 199 198 198 199 200 201 201 201 201 200 202 203 203 202 202 204 207 210 211 212 212 211 212 211 212 213 216 219 222 224 224 224 224 224 224 224 224 224 224 223 223 222 220 216 209 200 196 195 196 196 199 201 203 203 202 204 209 216 220 222 223 222 220
205 203 202 202 202 202 201 200 200 201 202 202 202 203 203 203 204 205 205 205 205 206 208 211 213 214 214 213 214 214 214 215 217 219 222 225 227 227 227 227 227 227 227 226 225 222 220 217 212 203 192 182 182 183 185 187 190 194 198 200 201 203 207 215 222 227 230 229 225
206 205 203 203 202 203 203 202 202 203 203 204 204 204 204 204 205 205 206 207 208 208 208 209 211 212 213 214 214 214 216 217 218 219 221 223 226 227 227 227 227 228 228 227 224 219 213 206 196 186 177 175 179 183 185 188 193 197 200 203 205 209 213 217 222 228 231 232 230
207 206 205 204 203 203 203 203 204 204 204 205 205 205 205 206 206 206 207 208 209 209 209 209 207 207 208 210 211 213 216 217 219 220 220 221 223 224 225 227 228 229 228 224 210 196 186 182 181 178 177 177 181 183 185 187 191 194 197 201 207 214 221 227 228 229 230 231 231
206 207 207 207 205 204 204 205 205 205 206 206 206 206 207 207 207 208 208 209 210 210 209 209 206 204 203 204 207 211 214 217 219 220 221 221 222 222 222 221 222 221 216 202 180 172 169 169 172 174 176 178 179 181 183 186 188 192 198 206 214 221 227 232 233 233 232 232 232
204 206 208 209 208 206 206 205 206 206 207 207 207 208 208 208 208 209 210 210 210 210 209 210 206 203 201 203 206 209 211 214 217 220 222 223 223 223 222 220 216 211 198 175 168 166 166 165 165 167 170 176 177 180 184 191 197 204 212 220 226 230 233 236 237 236 235 234 235
202 204 207 210 210 210 208 207 207 207 208 208 208 209 209 209 210 211 211 211 210 209 208 209 206 203 201 204 205 206 207 209 213 217 220 223 224 222 220 218 212 201 178 157 159 160 160 159 160 161 165 171 177 185 193 202 212 219 223 226 231 234 237 239 240 239 238 238 238
201 201 203 207 211 212 212 210 209 208 209 209 210 210 210 211 211 212 212 212 211 209 208 207 204 202 201 204 205 206 207 209 211 213 216 219 222 222 221 218 213 202 178 156 154 156 158 160 162 164 166 170 179 190 201 212 220 224 226 227 230 234 237 239 240 240 240 241 241
200 198 199 203 209 212 214 213 212 210 210 210 210 211 212 213 213 214 214 213 212 211 209 206 204 202 203 206 206 208 209 210 211 212 214 216 218 219 219 217 215 207 189 168 166 168 170 169 169 172 177 182 191 200 207 213 216 218 221 225 227 230 233 235 237 239 240 242 243
201 198 197 199 205 210 213 215 215 213 212 211 211 212 213 214 215 215 216 215 214 212 210 206 205 204 205 207 208 209 211 212 212 212 213 214 216 217 217 216 215 208 190 172 174 176 177 177 178 181 183 185 191 200 209 213 213 215 218 223 226 228 230 233 235 237 239 240 241
204 201 199 199 202 206 210 213 215 216 215 214 214 214 214 215 216 217 217 218 217 215 211 207 206 206 208 209 210 212 213 214 214 214 214 214 215 216 216 215 215 208 191 171 173 175 177 178 179 180 181 181 188 200 211 216 217 219 223 227 228 229 230 231 234 236 237 237 237
206 205 202 200 202 204 207 210 213 215 217 217 217 217 217 217 217 218 218 219 219 217 214 211 209 209 210 211 212 214 216 217 217 216 214 213 214 215 216 215 217 209 189 170 172 174 174 174 175 176 177 178 185 200 213 220 221 223 226 228 230 231 232 233 235 236 236 236 236
208 207 206 203 202 203 204 206 209 213 216 219 219 220 219 219 218 218 218 218 218 217 216 214 212 212 213 213 215 216 218 219 219 218 215 213 212 213 214 214 213 196 172 167 172 173 172 172 174 176 177 178 187 203 215 220 223 225 228 230 233 234 234 235 236 237 238 239 239
208 209 209 207 204 203 202 203 206 209 213 217 219 221 221 221 221 220 218 217 216 215 216 215 214 214 214 214 216 217 218 218 218 218 216 212 211 210 212 215 208 181 156 166 170 172 172 175 178 180 181 183 194 207 216 219 223 227 230 233 236 237 238 238 240 242 244 246 250
208 210 210 210 207 204 201 200 202 205 209 213 217 219 221 222 222 222 220 217 215 214 214 214 215 215 215 214 215 216 217 219 218 216 213 209 209 209 210 216 206 174 150 163 169 172 175 179 184 185 185 188 199 208 214 218 224 230 234 238 240 242 243 245 249 255 263 271 279
209 209 210 210 209 206 203 199 200 202 205 209 212 215 219 221 223 223 222 219 217 215 214 213 213 214 215 215 214 215 216 216 213 208 202 199 204 207 209 213 197 144 124 152 166 174 179 184 186 186 186 190 200 207 212 218 226 234 239 244 248 251 254 259 269 285 314 355 358
210 209 209 210 211 210 206 201 198 199 202 204 207 211 215 220 223 224 224 223 222 220 217 214 213 214 214 214 214 214 216 217 211 200 190 185 193 198 196 171 80 64 55 34 35 187 195 195 190 187 186 194 201 205 210 219 229 239 247 252 258 264 272 288 299 341 33 44 34
210 209 209 209 210 211 210 206 200 198 198 199 201 206 211 217 221 223 224 225 226 226 223 220 217 214 213 210 207 200 176 70 67 80 93 98 83 80 80 80 66 55 42 27 20 11 351 295 225 201 198 209 210 212 216 225 236 245 251 256 264 273 280 280 283 59 65 58 46
211 210 209 207 208 209 210 210 203 198 194 193 194 200 207 213 217 220 222 225 227 228 229 227 224 219 205 159 100 75 65 60 56 56 58 58 56 59 64 72 66 55 43 32 28 24 21 17 18 164 203 232 232 236 242 244 248 250 251 252 254 258 258 243 62 68 67 63 51
212 211 209 207 205 206 208 210 206 200 193 189 190 194 201 207 211 215 218 221 223 225 228 233 231 191 87 81 82 78 73 69 65 64 64 63 60 59 60 62 60 53 44 34 30 28 28 30 38 77 154 198 227 243 256 260 258 256 256 257 257 253 239 110 74 68 63 58 53